FW9404 Weather Reports


time (UTC)temp
C
wind
direction
speed
KPH
gust
KPH
rain 1hr
cm
rain 24hr
cm
rain mn
cm
humidity
%
barometer
mb
20260506202227 29 168 9.7 11.3 0.00 0.00 0.00 83 1009.8
20260506201724 29 87 8.0 8.0 0.00 0.00 0.00 84 1009.9
20260506201220 29 141 9.7 14.5 0.00 0.00 0.00 84 1010.0
20260506200717 29 91 8.0 16.1 0.00 0.00 0.00 84 1010.1
20260506200208 29 103 6.4 8.0 0.00 0.00 0.00 84 1010.2
20260506195705 29 49 14.5 24.1 0.00 0.00 0.00 84 1010.2
20260506195201 29 131 14.5 22.5 0.00 0.00 0.00 84 1010.2
20260506194659 29 98 8.0 11.3 0.00 0.00 0.00 83 1010.3
20260506194155 29 95 19.3 22.5 0.00 0.00 0.00 83 1010.4
20260506193652 30 135 14.5 19.3 0.00 0.00 0.00 82 1010.5
20260506193149 30 106 11.3 16.1 0.00 0.00 0.00 82 1010.6
20260506192646 30 87 11.3 11.3 0.00 0.00 0.00 81 1010.5
20260506192142 30 122 4.8 8.0 0.00 0.00 0.00 80 1010.3
20260506191639 31 132 9.7 14.5 0.00 0.00 0.00 77 1010.5
20260506191135 31 95 0.0 0.0 0.00 0.00 0.00 74 1010.6
20260506190633 31 120 0.0 0.0 0.00 0.00 0.00 74 1010.6
20260506190129 31 161 3.2 3.2 0.00 0.00 0.00 75 1010.8
20260506185627 31 155 3.2 4.8 0.00 0.00 0.00 74 1010.6
20260506185123 31 186 4.8 8.0 0.00 0.00 0.00 74 1010.6
20260506184620 32 187 0.0 3.2 0.00 0.00 0.00 73 1010.5
20260506184117 32 209 8.0 8.0 0.00 0.00 0.00 74 1010.8
20260506183614 31 118 0.0 0.0 0.00 0.00 0.00 74 1010.7
20260506183110 31 141 4.8 4.8 0.00 0.00 0.00 75 1010.9
20260506182608 31 151 1.6 3.2 0.00 0.00 0.00 76 1010.9
20260506182104 31 152 8.0 8.0 0.00 0.00 0.00 76 1010.8
20260506181602 31 86 0.0 0.0 0.00 0.00 0.00 75 1011.0
20260506181059 31 171 3.2 3.2 0.00 0.00 0.00 75 1010.9
20260506180556 31 180 4.8 4.8 0.00 0.00 0.00 75 1010.9
20260506180052 31 161 8.0 11.3 0.00 0.00 0.00 75 1010.9
20260506175548 30 200 4.8 4.8 0.00 0.00 0.00 77 1011.1
20260506175045 31 183 3.2 4.8 0.00 0.00 0.00 77 1010.9
20260506174544 31 263 6.4 8.0 0.00 0.00 0.00 75 1010.9
20260506174039 31 324 8.0 8.0 0.00 0.00 0.00 74 1011.1
20260506173537 31 196 4.8 4.8 0.00 0.00 0.00 77 1011.0
20260506173034 31 236 11.3 16.1 0.00 0.00 0.00 76 1011.0
20260506172532 31 215 11.3 14.5 0.00 0.00 0.00 77 1010.9
20260506172027 31 235 9.7 14.5 0.00 0.00 0.00 77 1010.8
20260506171525 30 194 6.4 8.0 0.00 0.00 0.00 78 1011.0
20260506171022 30 198 12.9 16.1 0.00 0.00 0.00 79 1011.0
20260506170520 30 255 12.9 14.5 0.00 0.00 0.00 80 1010.9
20260506170012 29 165 6.4 8.0 0.00 0.00 0.00 81 1010.9
20260506165510 28 210 8.0 11.3 0.00 0.00 0.00 83 1010.9
20260506165006 28 166 4.8 4.8 0.00 0.00 0.00 84 1011.1
20260506164503 28 228 4.8 4.8 0.00 0.00 0.00 85 1011.1
20260506164000 28 166 8.0 11.3 0.00 0.00 0.00 86 1011.0
20260506163455 27 165 11.3 14.5 0.00 0.00 0.00 87 1011.0
20260506162950 27 175 11.3 14.5 0.00 0.00 0.00 87 1011.2
20260506162448 27 202 6.4 8.0 0.00 0.00 0.00 87 1011.2
20260506161945 27 198 6.4 8.0 0.00 0.00 0.00 89 1011.1
20260506161443 27 161 8.0 8.0 0.00 0.00 0.00 89 1011.2
20260506160940 27 191 8.0 8.0 0.00 0.00 0.00 90 1011.0
20260506160438 27 154 8.0 8.0 0.00 0.00 0.00 90 1011.0
20260506155935 27 173 9.7 14.5 0.00 0.00 0.00 89 1011.0
20260506155432 27 180 8.0 11.3 0.00 0.00 0.00 89 1010.9
20260506153554 27 190 11.3 16.1 0.00 0.00 0.00 89 1010.6
20260506153051 27 215 9.7 11.3 0.00 0.00 0.00 90 1010.7
20260506152548 27 173 11.3 14.5 0.00 0.00 0.00 90 1010.5
20260506152046 27 173 14.5 22.5 0.00 0.00 0.00 90 1010.6
20260506151544 26 200 6.4 11.3 0.00 0.00 0.00 90 1010.5
20260506151041 26 143 12.9 16.1 0.00 0.00 0.00 91 1010.5
20260506150537 26 183 12.9 14.5 0.00 0.00 0.00 91 1010.4
20260506150034 26 161 16.1 24.1 0.00 0.00 0.00 91 1010.7
20260506145531 26 158 8.0 11.3 0.00 0.00 0.00 91 1010.7
20260506145028 26 162 11.3 16.1 0.00 0.00 0.00 91 1010.6
20260506144525 26 148 14.5 22.5 0.00 0.00 0.00 91 1010.7
20260506144022 26 163 11.3 14.5 0.00 0.00 0.00 91 1010.6
20260506143520 26 162 12.9 16.1 0.00 0.00 0.00 91 1010.7
20260506143019 26 233 14.5 22.5 0.00 0.00 0.00 91 1010.6
20260506142516 26 121 8.0 11.3 0.00 0.00 0.00 91 1010.8
20260506142014 26 176 6.4 8.0 0.00 0.00 0.00 92 1010.6
20260506141511 26 160 11.3 14.5 0.00 0.00 0.00 92 1010.8
20260506141009 26 163 11.3 16.1 0.00 0.00 0.00 92 1010.9
20260506140506 26 137 12.9 16.1 0.00 0.00 0.00 92 1010.7
20260506140004 26 123 11.3 14.5 0.00 0.00 0.00 92 1010.7
20260506135500 26 168 12.9 16.1 0.00 0.00 0.00 92 1010.7
20260506134956 26 123 3.2 3.2 0.00 0.00 0.00 92 1010.9
20260506134452 26 145 8.0 11.3 0.00 0.00 0.00 92 1010.6
20260506133949 26 148 4.8 11.3 0.00 0.00 0.00 92 1010.7
20260506133446 26 153 11.3 14.5 0.00 0.00 0.00 92 1010.6
20260506132943 26 136 4.8 8.0 0.00 0.00 0.00 92 1010.7
20260506132440 25 144 9.7 11.3 0.00 0.00 0.00 92 1010.5
20260506131938 25 177 8.0 8.0 0.00 0.00 0.00 92 1010.8
20260506131434 25 119 3.2 4.8 0.00 0.00 0.00 92 1010.5
20260506130931 25 150 4.8 4.8 0.00 0.00 0.00 92 1010.6
20260506130427 25 149 3.2 3.2 0.00 0.00 0.00 92 1010.4
20260506125925 25 168 4.8 8.0 0.00 0.00 0.00 92 1010.4
20260506125424 25 152 11.3 16.1 0.00 0.00 0.00 92 1010.5
20260506124922 25 140 4.8 4.8 0.00 0.00 0.00 92 1010.4
20260506124419 25 137 6.4 8.0 0.00 0.00 0.00 92 1010.3
20260506123916 25 150 11.3 14.5 0.00 0.00 0.00 92 1010.2
20260506123414 25 96 4.8 8.0 0.00 0.00 0.00 92 1010.1
20260506122911 25 143 11.3 11.3 0.00 0.00 0.00 92 1010.0
20260506122408 25 99 6.4 8.0 0.00 0.00 0.00 92 1010.2
20260506121907 25 138 6.4 8.0 0.00 0.00 0.00 92 1010.1
20260506121403 25 126 12.9 16.1 0.00 0.00 0.00 92 1010.0
20260506120900 25 123 12.9 16.1 0.00 0.00 0.00 93 1009.9
20260506120358 25 116 6.4 8.0 0.00 0.00 0.00 93 1009.8
20260506115855 25 113 3.2 4.8 0.00 0.00 0.00 93 1009.9
20260506115353 25 109 11.3 11.3 0.00 0.00 0.00 93 1009.7
20260506114851 25 105 1.6 3.2 0.00 0.00 0.00 93 1009.9
20260506114348 25 101 3.2 3.2 0.00 0.00 0.00 93 1009.8
20260506113847 25 108 6.4 8.0 0.00 0.00 0.00 93 1009.9
20260506113344 25 130 4.8 4.8 0.00 0.00 0.00 93 1009.6
20260506112840 25 111 6.4 8.0 0.00 0.00 0.00 92 1009.9
20260506112338 25 124 4.8 8.0 0.00 0.00 0.00 92 1009.8
20260506111835 25 100 6.4 8.0 0.00 0.00 0.00 92 1009.6
20260506111333 25 90 4.8 4.8 0.00 0.00 0.00 92 1009.7
20260506110830 25 97 1.6 3.2 0.00 0.00 0.00 92 1009.7
20260506110327 25 127 4.8 8.0 0.00 0.00 0.00 92 1009.7
20260506105824 25 94 3.2 3.2 0.00 0.00 0.00 92 1009.6
20260506105320 25 105 3.2 3.2 0.00 0.00 0.00 92 1009.6
20260506104818 25 91 6.4 11.3 0.00 0.00 0.00 92 1009.3
20260506104316 25 86 6.4 8.0 0.00 0.00 0.00 92 1009.3
20260506103813 25 101 4.8 4.8 0.00 0.00 0.00 92 1009.6
20260506103310 25 103 4.8 4.8 0.00 0.00 0.00 92 1009.6
20260506102808 25 106 4.8 4.8 0.00 0.00 0.00 92 1009.5
20260506102306 25 96 4.8 4.8 0.00 0.00 0.00 92 1009.6
20260506101803 25 131 4.8 4.8 0.00 0.00 0.00 92 1009.5
20260506101258 25 140 4.8 4.8 0.00 0.00 0.00 92 1009.5
20260506100757 25 125 4.8 4.8 0.00 0.00 0.00 92 1009.4
20260506100255 25 103 0.0 0.0 0.00 0.00 0.00 92 1009.4
20260506095753 25 144 8.0 8.0 0.00 0.00 0.00 92 1009.5
20260506095249 25 122 1.6 3.2 0.00 0.00 0.00 92 1009.5
20260506094746 25 134 4.8 4.8 0.00 0.00 0.00 92 1009.3
20260506094245 25 112 6.4 8.0 0.00 0.00 0.00 92 1009.3
20260506093743 25 167 14.5 16.1 0.00 0.00 0.00 92 1009.4
20260506093239 25 124 4.8 4.8 0.00 0.00 0.00 92 1009.3
20260506092737 25 95 8.0 11.3 0.00 0.00 0.00 92 1009.4
20260506092235 25 112 6.4 8.0 0.00 0.00 0.00 92 1009.2
20260506091732 25 130 8.0 11.3 0.00 0.00 0.00 92 1009.3
20260506091230 25 121 4.8 8.0 0.00 0.00 0.00 92 1009.1
20260506090727 25 161 11.3 14.5 0.00 0.00 0.00 92 1009.2
20260506090224 25 140 9.7 11.3 0.00 0.00 0.00 92 1009.1
20260506085721 25 159 11.3 14.5 0.00 0.00 0.00 92 1009.4
20260506085217 25 113 6.4 8.0 0.00 0.00 0.00 92 1009.0
20260506084714 25 140 12.9 16.1 0.00 0.00 0.00 92 1009.2
20260506084210 25 179 6.4 8.0 0.00 0.00 0.00 92 1009.0
20260506083707 25 160 17.7 24.1 0.00 0.00 0.00 92 1008.9
20260506083205 25 130 14.5 19.3 0.00 0.00 0.00 92 1008.9
20260506082702 25 179 8.0 14.5 0.00 0.00 0.00 92 1009.1
20260506082202 25 206 8.0 14.5 0.00 0.00 0.00 92 1008.7
20260506081700 25 188 11.3 14.5 0.00 0.00 0.00 92 1008.8
20260506081158 25 159 11.3 16.1 0.00 0.00 0.00 92 1009.2
20260506080656 25 165 8.0 8.0 0.00 0.00 0.00 91 1009.0
20260506080152 25 131 12.9 16.1 0.00 0.00 0.00 91 1009.2
20260506073136 25 138 12.9 19.3 0.00 0.00 0.00 91 1009.2
20260506072632 25 182 14.5 19.3 0.00 0.00 0.00 91 1009.4
20260506072131 25 169 16.1 19.3 0.00 0.00 0.00 91 1009.1
20260506071628 25 147 19.3 24.1 0.00 0.00 0.00 91 1009.0
20260506071125 25 149 16.1 24.1 0.00 0.00 0.00 91 1009.0
20260506070622 25 146 17.7 22.5 0.00 0.00 0.00 91 1009.4
20260506070119 25 192 11.3 16.1 0.00 0.00 0.00 91 1009.3
20260506062056 25 165 14.5 16.1 0.00 0.00 0.00 91 1009.8
20260506061552 25 143 12.9 14.5 0.00 0.00 0.00 91 1009.9
20260506061050 25 158 17.7 19.3 0.00 0.00 0.00 91 1009.7
20260506060548 25 174 17.7 22.5 0.00 0.00 0.00 91 1010.0
20260506051017 25 202 16.1 24.1 0.00 0.00 0.00 92 1010.3
20260506050515 25 167 9.7 19.3 0.00 0.00 0.00 92 1010.3
20260506045005 25 151 16.1 22.5 0.00 0.00 0.00 92 1010.0
20260506044504 25 171 17.7 19.3 0.00 0.00 0.00 92 1010.3
20260506044000 25 148 8.0 11.3 0.00 0.00 0.00 92 1010.4
20260506043457 25 127 14.5 16.1 0.00 0.00 0.00 92 1010.1
20260506042955 25 157 11.3 19.3 0.00 0.00 0.00 92 1010.1
20260506042454 25 146 9.7 14.5 0.00 0.00 0.00 92 1010.1
20260506041952 25 170 22.5 27.4 0.00 0.00 0.00 92 1010.2
20260506041450 25 195 9.7 14.5 0.00 0.00 0.00 92 1009.9
20260506040947 25 114 14.5 19.3 0.00 0.00 0.00 92 1009.9
20260506040444 25 146 11.3 16.1 0.00 0.00 0.00 92 1010.1
20260506035940 25 139 16.1 19.3 0.00 0.00 0.00 91 1009.9
20260506035438 25 159 12.9 16.1 0.00 0.00 0.00 91 1010.0
20260506034934 25 189 20.9 33.8 0.00 0.00 0.00 91 1009.9
20260506034431 25 195 9.7 11.3 0.00 0.00 0.00 91 1009.8
20260506033929 25 132 8.0 11.3 0.00 0.00 0.00 91 1010.0
20260506033426 25 148 16.1 24.1 0.00 0.00 0.00 91 1009.7
20260506032922 25 176 16.1 16.1 0.00 0.00 0.00 91 1009.8
20260506032419 25 180 17.7 24.1 0.00 0.00 0.00 91 1009.6
20260506031916 25 157 14.5 24.1 0.00 0.00 0.00 91 1009.7
20260506031414 25 202 19.3 24.1 0.00 0.00 0.00 91 1009.5
20260506030911 25 184 24.1 38.6 0.00 0.00 0.00 91 1009.4
20260506030409 25 146 8.0 8.0 0.00 0.00 0.00 91 1009.4
20260506025906 25 172 20.9 35.4 0.00 0.00 0.00 91 1009.5
20260506025403 25 135 16.1 22.5 0.00 0.00 0.00 91 1009.2
20260506024859 25 180 20.9 24.1 0.00 0.00 0.00 91 1009.3
20260506024356 25 153 19.3 22.5 0.00 0.00 0.00 91 1009.2
20260506023852 25 158 17.7 24.1 0.00 0.00 0.00 91 1009.2
20260506023349 25 157 25.7 33.8 0.00 0.00 0.00 91 1008.9
20260506022846 25 155 17.7 27.4 0.00 0.00 0.00 91 1009.3
20260506022343 26 151 12.9 16.1 0.00 0.00 0.00 91 1009.1
20260506021841 26 157 24.1 38.6 0.00 0.00 0.00 90 1009.1
20260506021338 26 132 30.6 38.6 0.00 0.00 0.00 90 1009.1
20260506020835 26 149 16.1 22.5 0.00 0.00 0.00 90 1008.8
20260506020333 26 178 20.9 33.8 0.00 0.00 0.00 90 1008.8
20260506015830 26 133 12.9 16.1 0.00 0.00 0.00 90 1008.5
20260506015327 26 216 12.9 16.1 0.00 0.00 0.00 90 1008.5
20260506014824 26 140 11.3 14.5 0.00 0.00 0.00 90 1008.8
20260506014321 26 169 20.9 30.6 0.00 0.00 0.00 89 1008.4
20260506013817 26 182 4.8 4.8 0.00 0.00 0.00 89 1008.5
20260506013315 26 130 19.3 27.4 0.00 0.00 0.00 89 1008.5
20260506012811 26 156 17.7 24.1 0.00 0.00 0.00 89 1008.5
20260506012308 26 170 16.1 24.1 0.00 0.00 0.00 89 1008.1
20260506011805 26 131 17.7 19.3 0.00 0.00 0.00 89 1008.4
20260506011302 26 153 19.3 24.1 0.00 0.00 0.00 88 1007.8
20260506010800 26 165 25.7 41.8 0.00 0.00 0.00 88 1007.8
20260506010257 26 174 12.9 16.1 0.00 0.00 0.00 88 1007.7
20260506005754 26 168 14.5 24.1 0.00 0.00 0.00 88 1007.6
20260506005251 26 179 24.1 35.4 0.00 0.00 0.00 87 1007.8
20260506004747 27 125 9.7 11.3 0.00 0.00 0.00 87 1007.7
20260506004245 27 150 32.2 41.8 0.00 0.00 0.00 87 1007.8
20260506003740 27 169 16.1 24.1 0.00 0.00 0.00 86 1007.7
20260506003237 27 157 14.5 19.3 0.00 0.00 0.00 86 1007.6
20260506002733 27 190 22.5 38.6 0.00 0.00 0.00 86 1007.6
20260506002229 27 147 19.3 27.4 0.00 0.00 0.00 85 1007.5
20260506001725 27 185 9.7 16.1 0.00 0.00 0.00 84 1007.3
20260506001223 27 116 24.1 38.6 0.00 0.00 0.00 84 1007.7
20260506000720 28 137 22.5 35.4 0.00 0.00 0.00 83 1007.6
20260506000219 28 158 17.7 22.5 0.00 0.00 0.00 83 1007.6
20260505235714 28 160 24.1 35.4 0.00 0.00 0.00 83 1007.4
20260505235212 28 191 27.4 33.8 0.00 0.00 0.00 82 1007.6
20260505234709 28 138 14.5 19.3 0.00 0.00 0.00 82 1007.4
20260505234206 28 199 20.9 33.8 0.00 0.00 0.00 81 1007.3
20260505233702 28 160 19.3 27.4 0.00 0.00 0.00 81 1007.3
20260505233200 29 169 17.7 22.5 0.00 0.00 0.00 80 1007.2
20260505232658 29 211 14.5 19.3 0.00 0.00 0.00 80 1007.0
20260505232155 29 146 24.1 41.8 0.00 0.00 0.00 79 1007.3
20260505231652 29 177 19.3 24.1 0.00 0.00 0.00 80 1007.3
20260505231151 29 133 20.9 24.1 0.00 0.00 0.00 80 1007.4
20260505230649 30 138 20.9 30.6 0.00 0.00 0.00 79 1007.1
20260505230145 30 183 22.5 33.8 0.00 0.00 0.00 77 1007.1
20260505225641 30 162 9.7 16.1 0.00 0.00 0.00 78 1007.0
20260505225137 30 138 17.7 33.8 0.00 0.00 0.00 78 1006.9
20260505224634 30 183 24.1 33.8 0.00 0.00 0.00 77 1007.0
20260505224132 30 128 14.5 19.3 0.00 0.00 0.00 76 1006.9
20260505223629 30 178 24.1 35.4 0.00 0.00 0.00 77 1007.2
20260505223125 30 194 32.2 46.7 0.00 0.00 0.00 77 1006.9
20260505222621 30 162 11.3 22.5 0.00 0.00 0.00 77 1007.0
20260505222117 30 147 11.3 16.1 0.00 0.00 0.00 77 1007.0
20260505221614 30 134 27.4 41.8 0.00 0.00 0.00 76 1007.1
20260505221111 30 181 29.0 41.8 0.00 0.00 0.00 74 1007.2
20260505220609 31 202 22.5 33.8 0.00 0.00 0.00 74 1007.0
20260505220106 31 122 16.1 27.4 0.00 0.00 0.00 74 1007.3
20260505215604 31 181 24.1 41.8 0.00 0.00 0.00 72 1007.2
20260505215101 31 157 25.7 38.6 0.00 0.00 0.00 73 1007.3
20260505214600 31 148 25.7 35.4 0.00 0.00 0.00 73 1007.5
20260505214056 31 166 30.6 51.5 0.00 0.00 0.00 72 1007.3
20260505213554 31 183 19.3 30.6 0.00 0.00 0.00 73 1007.3
20260505213050 31 122 12.9 16.1 0.00 0.00 0.00 73 1007.5
20260505212546 32 152 19.3 22.5 0.00 0.00 0.00 71 1007.6
20260505212044 31 121 20.9 27.4 0.00 0.00 0.00 72 1007.5
20260505211541 32 148 17.7 22.5 0.00 0.00 0.00 71 1007.8
20260505211037 32 210 8.0 8.0 0.00 0.00 0.00 70 1007.7
20260505210534 32 165 22.5 33.8 0.00 0.00 0.00 70 1007.7
20260505210031 32 177 22.5 27.4 0.00 0.00 0.00 69 1007.7
20260505205529 32 169 27.4 41.8 0.00 0.00 0.00 69 1007.9
20260505205026 32 194 17.7 22.5 0.00 0.00 0.00 68 1007.7
20260505204524 32 167 20.9 30.6 0.00 0.00 0.00 69 1008.1
20260505204021 32 159 14.5 19.3 0.00 0.00 0.00 69 1008.2
20260505203517 32 192 25.7 30.6 0.00 0.00 0.00 69 1008.1
20260505203014 32 157 16.1 19.3 0.00 0.00 0.00 70 1008.2
20260505202510 32 129 17.7 22.5 0.00 0.00 0.00 69 1008.5